Location: İstanbul
(41.0082°N, 28.9784°E)
Time: 20:16:45
(UTC+03:00)

NOAA 19 - Pass Details

Date: 25 April 2024
Orbit: 839 x 859 km, 99.0° (Epoch: 29 May)

Event Time Altitude Azimuth Distance (km) Brightness Sun altitude
Exits shadow 23:04:44 12° 236° (SW) 2,341 7.5 -29.1°
Maximum altitude 23:07:30 16° 269° (W) 2,049 7.5 -29.4°
Drops below altitude 10° 23:10:49 10° 307° (NW) 2,463 8.4 -29.7°
Sets 23:14:09 0° 328° (NNW) 3,402 9.5 -30.0°
